FW3937 Weather Reports


time (UTC)temp
C
wind
direction
speed
KPH
gust
KPH
rain 1hr
cm
rain 24hr
cm
rain mn
cm
humidity
%
barometer
mb
20260505112110 12 92 3.2 6.4 0.00 0.03 0.03 62 1009.5
20260505111019 12 114 4.8 9.7 0.00 0.03 0.03 62 1009.7
20260505102025 12 70 4.8 6.4 0.00 0.03 0.03 63 1009.9
20260505101019 12 103 6.4 11.3 0.00 0.03 0.03 60 1009.9
20260505100033 12 77 4.8 8.0 0.00 0.03 0.03 67 1009.9
20260505095107 11 83 3.2 6.4 0.03 0.03 0.03 70 1009.8
20260505094101 12 75 4.8 6.4 0.03 0.03 0.03 70 1009.9
20260505093015 12 79 3.2 4.8 0.03 0.03 0.03 65 1009.8
20260505092029 12 83 3.2 6.4 0.03 0.03 0.03 68 1009.8
20260505091023 12 79 3.2 6.4 0.03 0.03 0.03 70 1009.9
20260505090017 11 80 4.8 9.7 0.03 0.03 0.03 71 1010.0
20260505085032 12 73 6.4 14.5 0.00 0.00 0.00 71 1010.1
20260505084026 12 87 4.8 6.4 0.00 0.00 0.00 67 1010.2
20260505083019 12 82 3.2 4.8 0.00 0.00 0.00 66 1010.2
20260505082033 12 67 4.8 9.7 0.00 0.00 0.00 63 1010.3
20260505081026 13 68 3.2 4.8 0.00 0.00 0.00 60 1010.5
20260505080020 13 292 1.6 6.4 0.00 0.00 0.00 59 1010.2
20260505075113 13 34 3.2 4.8 0.00 0.00 0.00 59 1010.3
20260505074025 13 83 4.8 8.0 0.00 0.00 0.00 59 1010.3
20260505073018 13 27 3.2 3.2 0.00 0.00 0.00 59 1010.3
20260505072032 13 32 1.6 4.8 0.00 0.00 0.00 59 1010.3
20260505071024 13 91 4.8 6.4 0.00 0.00 0.00 59 1010.3
20260505070016 13 72 4.8 8.0 0.00 0.00 0.00 61 1010.4
20260505065030 13 86 4.8 8.0 0.00 0.00 0.00 61 1010.5
20260505064023 13 109 4.8 9.7 0.00 0.00 0.00 61 1010.4
20260505063017 13 114 3.2 9.7 0.00 0.00 0.00 60 1010.3
20260505062031 13 119 3.2 8.0 0.00 0.00 0.00 60 1010.2
20260505061025 13 128 6.4 12.9 0.00 0.00 0.00 59 1010.3
20260505060018 13 117 6.4 12.9 0.00 0.00 0.00 58 1010.1
20260505055033 13 93 6.4 11.3 0.00 0.00 0.00 56 1010.1
20260505054107 14 139 3.2 9.7 0.00 0.00 0.00 56 1010.1
20260505053020 14 184 3.2 9.7 0.00 0.00 0.00 55 1010.0
20260505052114 15 127 4.8 8.0 0.00 0.00 0.00 53 1009.8
20260505051027 15 62 3.2 8.0 0.00 0.00 0.00 52 1009.9
20260505041029 16 75 4.8 9.7 0.00 0.00 0.00 44 1009.0
20260505040021 15 216 3.2 8.0 0.00 0.00 0.00 46 1008.9
20260505035035 15 36 3.2 6.4 0.00 0.00 0.00 45 1008.6
20260505034028 15 48 4.8 8.0 0.00 0.00 0.00 44 1008.4
20260505033022 15 52 4.8 6.4 0.00 0.00 0.00 43 1008.1
20260505032055 16 39 4.8 6.4 0.00 0.00 0.00 42 1008.1
20260505031028 16 39 4.8 6.4 0.00 0.00 0.00 41 1007.9
20260505030022 17 48 4.8 6.4 0.00 0.00 0.00 39 1007.9
20260505025057 17 31 1.6 6.4 0.00 0.00 0.00 38 1007.8
20260505024031 18 78 6.4 9.7 0.00 0.00 0.00 37 1007.7
20260505023105 18 62 3.2 4.8 0.00 0.00 0.00 36 1007.7
20260505022058 18 47 3.2 6.4 0.00 0.00 0.00 36 1007.7
20260505020108 18 31 4.8 8.0 0.00 0.00 0.00 36 1007.5
20260505015021 18 44 4.8 8.0 0.00 0.00 0.00 36 1007.4
20260505014035 18 31 6.4 17.7 0.00 0.00 0.00 36 1007.4
20260505013029 18 52 6.4 11.3 0.00 0.00 0.00 36 1007.6
20260505012024 18 37 8.0 16.1 0.00 0.00 0.00 37 1007.7
20260505011018 17 34 8.0 20.9 0.00 0.00 0.00 38 1007.7
20260505010032 17 34 8.0 16.1 0.00 0.00 0.00 37 1007.6
20260505005026 17 44 8.0 17.7 0.00 0.00 0.00 39 1007.7
20260505004100 17 47 11.3 27.4 0.00 0.00 0.00 40 1007.8
20260505003035 17 44 9.7 19.3 0.00 0.00 0.00 41 1007.9
20260505002028 17 57 9.7 25.7 0.00 0.00 0.00 41 1008.2
20260505001022 17 58 8.0 19.3 0.00 0.00 0.00 43 1008.2
20260505000017 17 75 12.9 29.0 0.00 0.00 0.00 43 1008.3
20260504235031 17 53 9.7 19.3 0.00 0.00 0.00 44 1008.4
20260504234025 16 52 14.5 29.0 0.00 0.00 0.00 45 1008.8
20260504233019 16 47 12.9 25.7 0.00 0.00 0.00 44 1008.9
20260504232032 17 38 12.9 29.0 0.00 0.00 0.00 42 1008.9
20260504231026 18 43 9.7 20.9 0.00 0.00 0.00 38 1008.8
20260504230100 17 87 8.0 19.3 0.00 0.00 0.00 39 1008.8
20260504225034 17 93 9.7 22.5 0.00 0.00 0.00 39 1008.9
20260504224028 18 95 8.0 17.7 0.00 0.00 0.00 39 1008.8
20260504223022 17 113 6.4 20.9 0.00 0.00 0.00 41 1008.8
20260504222015 18 130 9.7 24.1 0.00 0.00 0.00 38 1008.7
20260504221029 20 170 6.4 16.1 0.00 0.00 0.00 31 1008.5
20260504220023 21 203 3.2 8.0 0.00 0.00 0.00 28 1008.2
20260504215017 21 279 3.2 11.3 0.00 0.00 0.00 27 1008.2
20260504214031 21 256 3.2 9.7 0.00 0.00 0.00 26 1008.2
20260504213025 22 299 3.2 9.7 0.00 0.00 0.00 27 1008.3
20260504212018 22 280 6.4 16.1 0.00 0.00 0.00 26 1008.3
20260504211031 21 273 6.4 12.9 0.00 0.00 0.00 27 1008.4
20260504210024 22 251 11.3 19.3 0.00 0.00 0.00 26 1008.5
20260504205018 22 299 4.8 9.7 0.00 0.00 0.00 27 1008.6
20260504204112 22 284 8.0 17.7 0.00 0.00 0.00 28 1008.6
20260504203027 22 296 3.2 6.4 0.00 0.00 0.00 28 1008.7
20260504202021 21 321 3.2 9.7 0.00 0.00 0.00 29 1008.9
20260504201035 22 281 1.6 4.8 0.00 0.00 0.00 28 1009.0
20260504200028 22 323 8.0 16.1 0.00 0.00 0.00 27 1009.1
20260504195123 23 323 6.4 12.9 0.00 0.00 0.00 29 1009.1
20260504194055 22 285 4.8 11.3 0.00 0.00 0.00 29 1009.2
20260504193029 22 278 4.8 9.7 0.00 0.00 0.00 28 1009.3
20260504192024 21 283 6.4 11.3 0.00 0.00 0.00 29 1009.4
20260504191017 22 304 8.0 16.1 0.00 0.00 0.00 29 1009.5
20260504190030 22 308 4.8 9.7 0.00 0.00 0.00 29 1009.6
20260504185025 21 287 8.0 16.1 0.00 0.00 0.00 28 1009.7
20260504184020 21 287 6.4 11.3 0.00 0.00 0.00 29 1009.8
20260504183035 22 78 3.2 12.9 0.00 0.00 0.00 29 1009.9
20260504182028 21 341 4.8 9.7 0.00 0.00 0.00 29 1010.1
20260504181027 21 233 4.8 12.9 0.00 0.00 0.00 29 1010.3
20260504180016 21 283 3.2 11.3 0.00 0.00 0.00 30 1010.3
20260504175030 21 273 6.4 9.7 0.00 0.00 0.00 31 1010.5
20260504174105 20 292 3.2 9.7 0.00 0.00 0.00 31 1010.5
20260504173058 20 313 3.2 6.4 0.00 0.00 0.00 32 1010.6
20260504172032 20 235 4.8 9.7 0.00 0.00 0.00 32 1010.8
20260504171106 20 213 3.2 11.3 0.00 0.00 0.00 32 1010.9
20260504151034 17 252 3.2 8.0 0.00 0.00 0.00 37 1011.2
20260504141034 16 47 3.2 6.4 0.00 0.00 0.00 44 1011.3
20260504130111 13 64 4.8 6.4 0.00 0.00 0.00 45 1011.4